#timestamp,LO_Frequency,Hit,StdDev 
1509598815.5,286046993.5,P
1509598835.4,286046995.9,N
1509598855.2,286046996.4,N
1509598875.0,286046996.0,N
1509598875.9,286046996.0,Y
1509598895.8,286047000.1,P
1509598915.6,286047001.8,N
1509598935.5,286047001.6,N
1509598955.3,286046998.5,N
1509598975.1,286046999.1,N
1509598995.9,286046999.9,N
1509599015.7,286046998.2,N
1509599035.5,286046993.7,Y
1509599055.4,286046996.7,P
1509599075.2,286046995.4,P
1509599095.0,286046998.8,N
1509599095.9,286046998.8,N
1509599115.8,286046995.4,Y
1509599135.6,286046999.1,P
1509599155.4,286047001.5,N
1509599175.3,286047003.5,N
1509599195.1,286046999.9,N
1509599215.8,286047005.4,N
1509599235.7,286047004.3,N
1509599255.5,286047004.6,N
1509599275.3,286047007.2,N
1509599295.2,286047008.9,N
1509599315.0,286047004.4,N
1509599315.9,286047004.4,N
1509599335.8,286047004.0,N
1509599355.6,286047002.1,N
1509599375.4,286047002.7,N
1509599395.3,286047004.3,N
1509599415.1,286047005.7,N
1509599416.0,286047005.7,N
1509599435.8,286047005.6,N
1509599455.7,286047003.2,N
1509599475.5,286047004.3,N
1509599495.3,286046999.7,N
1509599515.2,286047001.8,N
1509599535.9,286047004.4,N
1509599555.7,286047006.0,N
1509599575.6,286047007.1,N
1509599595.4,286047007.2,N
1509599615.2,286047008.3,Y
1509599635.1,286047007.4,P
1509599636.0,286047007.4,P
1509599655.8,286047009.1,P
1509599675.7,286047008.6,Y
1509599695.5,286046998.2,P
1509599715.3,286047000.4,N
1509599735.2,286047001.9,N
1509599755.9,286046999.9,N
1509599775.7,286047001.0,N
1509599795.6,286046998.1,N
1509599815.4,286047004.4,N
1509599835.2,286047001.6,N
1509599855.1,286047000.6,N
1509599856.0,286047000.6,N
1509599875.8,286047000.3,N
1509599895.6,286047002.4,N
1509599915.5,286046999.8,N
1509599935.3,286047000.4,N
1509599955.1,286047000.0,N
1509599975.9,286046998.2,N
1509599995.7,286046999.1,N
1509600015.5,286047001.8,N
1509600035.4,286047000.4,N
1509600055.2,286047000.9,N
1509600075.0,286047001.2,N
1509600075.9,286047001.2,N
1509600095.8,286047001.1,N
1509600115.6,286047000.7,N
1509600135.4,286047001.9,N
1509600155.3,286047000.2,N
1509600175.1,286047002.6,N
1509600195.8,286047001.0,N
1509600215.7,286047000.0,N
1509600235.5,286047002.0,N
1509600255.3,286047001.6,N
1509600275.2,286047002.3,N
1509600295.0,286047003.9,Y
1509600295.9,286047003.9,P
1509600315.8,286047002.5,N
1509600335.6,286047002.5,N
1509600355.4,286047000.2,N
1509600375.3,286047002.2,N
1509600395.1,286047000.3,N
1509600396.0,286047000.3,N
1509600415.8,286046998.1,N
1509600435.7,286047002.0,N
1509600455.5,286046999.8,N
1509600475.3,286047001.7,N
1509600495.2,286047007.5,Y
1509600515.0,286047007.6,P
1509600515.9,286047007.6,N
1509600535.8,286047008.9,N
1509600555.6,286047005.4,N
1509600575.4,286047001.6,N
1509600595.3,286047000.7,N
1509600615.1,286046994.9,N
1509600616.0,286046994.9,N
1509600635.8,286046993.0,N
1509600655.7,286046990.0,N
1509600675.5,286046986.9,N
1509600695.3,286046989.3,N
1509600715.2,286046987.8,N
1509600735.9,286046988.4,N
1509600755.7,286046985.8,N
1509600775.6,286046985.0,N
1509600795.4,286046981.4,N
1509600815.2,286046984.4,N
1509600835.1,286046985.6,N
1509600836.0,286046985.6,N
1509600855.8,286046982.6,N
1509600875.6,286046984.9,N
1509600895.5,286046985.4,N
1509600915.3,286046985.3,N
1509600935.1,286046984.6,N
1509600955.9,286046980.4,N
1509600975.7,286046977.5,N
1509600995.5,286046979.1,N
1509601015.4,286046979.1,N
1509601035.2,286046981.9,N
1509601055.0,286046977.9,N
1509601055.9,286046977.9,N
1509601075.8,286046976.7,N
1509601095.6,286046978.3,Y
1509601115.4,286046989.6,P
1509601135.3,286046991.4,P
1509601155.1,286046992.1,P
1509601175.9,286046992.0,Y
1509601195.7,286047003.5,P
1509601215.5,286047003.1,N
1509601235.4,286047002.6,N
1509601255.2,286047002.4,N
1509601275.0,286047003.7,N
1509601275.9,286047003.7,N
1509601295.8,286047004.0,N
1509601315.6,286046999.8,N
1509601335.5,286046999.8,N
1509601355.3,286047002.2,N
1509601375.1,286047003.4,N
1509601395.9,286047005.4,N
1509601415.7,286047007.6,N
1509601435.5,286047003.2,N
1509601455.4,286047004.9,N
1509601475.2,286047010.1,N
1509601495.0,286047009.7,N
1509601495.9,286047009.7,N
1509601515.8,286047014.3,Y
1509601535.6,286047011.0,P
1509601555.4,286047009.8,N
1509601575.3,286047012.2,P
1509601595.1,286047010.9,Y
1509601615.9,286047001.5,P
1509601635.7,286047001.7,N
1509601655.5,286047005.3,N
1509601675.4,286047002.9,N
1509601695.2,286047005.8,N
1509601715.0,286047006.4,N
1509601715.9,286047006.4,N
1509601735.8,286047006.6,N
1509601755.6,286047008.4,Y
1509601775.4,286047003.7,P
1509601795.3,286047002.9,P
1509601815.1,286047005.7,P
1509601835.8,286047004.8,Y
1509601855.7,286047000.6,P
1509601875.5,286046999.0,N
1509601895.3,286046995.5,N
1509601915.2,286046997.9,N
1509601935.0,286047001.0,N
1509601935.9,286047001.0,N
1509601955.8,286046999.4,N
1509601975.6,286046999.3,N
1509601995.4,286046997.4,N
1509602015.3,286046995.5,N
1509602035.1,286046996.4,N
1509602036.0,286046996.4,N
1509602055.8,286046994.7,N
1509602075.7,286046993.0,N
1509602095.5,286046990.4,Y
1509602115.3,286046992.9,P
1509602135.2,286046992.0,P
1509602155.0,286046993.1,N
1509602155.9,286046993.1,N
1509602175.8,286046990.1,Y
1509602195.6,286046996.0,P
1509602215.4,286046993.6,P
1509602235.3,286046992.5,P
1509602255.1,286046992.5,Y
1509602275.8,286046997.9,P
1509602295.7,286046997.0,N
1509602315.5,286047000.9,N
1509602335.3,286047001.4,N
1509602355.2,286047003.4,N
1509602375.0,286047006.1,N
1509602375.9,286047006.1,N
1509602395.7,286047012.1,N
